Location: Costa Valle Imagna
(45.8000°N, 9.5000°E)
Time: 10:59:24
(UTC+00:00)

ALOS - Pass Details

Date: 17 February 2020
Orbit: 683 x 685 km, 97.8° (Epoch: 05 April)

Event Time Altitude Azimuth Distance (km) Brightness Sun altitude
Rises 05:13:08 0° 7° (N) 3,061 5.7 -12.7°
Reaches altitude 10° 05:15:27 10° 1° (N) 2,140 4.8 -12.3°
Maximum altitude 05:19:53 44° 290° (WNW) 943 2.6 -11.5°
Drops below altitude 10° 05:24:18 10° 218° (SW) 2,124 4.5 -10.7°
Sets 05:26:36 0° 212° (SSW) 3,035 5.3 -10.3°
